Location: La Tine
(46.4708°N, 7.0525°E)
Time: 19:13:57
(UTC+00:00)

SJ 16-02 - Visible Passes

Search period start: 26 January 2021 00:00
Search period end: 05 February 2021 00:00
Orbit: 606 x 616 km, 75.0° (Epoch: 26 January)

Date Brightness Start Highest point End Pass type
(mag) Time Alt. Az. Time Alt. Az. Time Alt. Az.
26 Jan 1.3 17:02:25 10° SSW 17:06:49 79° ESE 17:11:13 10° NNE visible
26 Jan 4.1 18:43:39 10° W 18:45:59 14° NW 18:48:19 10° NNW visible
27 Jan 2.0 17:17:22 10° SSW 17:21:42 57° WNW 17:26:03 10° NNE visible
28 Jan 3.0 17:32:44 10° SW 17:36:42 33° WNW 17:40:42 10° N visible
29 Jan 3.8 17:48:33 10° WSW 17:51:49 20° NW 17:55:05 10° N visible
30 Jan 4.1 18:05:09 10° WNW 18:07:02 12° NW 18:08:55 10° NNW visible
02 Feb 3.9 17:09:50 10° W 17:12:50 18° NW 17:15:52 10° NNW visible
03 Feb 4.2 17:26:51 10° WNW 17:28:06 11° NW 17:29:21 10° NNW visible
